Flag for Australia Weather past 2 weeks in Melbourne, Victoria, Australia

Now
64 °F

Sunny.


Feels Like: 64 °F
Forecast: 55 / 89 °F
Wind: 14 mph from South

Location: Melbourne Airport

Current Time: Dec 20, 2014 at 8:51:45 PM

Latest Report: Dec 20, 2014 at 8:00 PM


Visibility: 10 mi

Pressure: 30.04 "Hg

Humidity: 64%

Dew point: 52 °F

Location of MelbourneLocation

Historic Weather in Melbourne — Graph

°F

Melbourne temperature yesterday

Maximum temperature yesterday: 66 °F (at 3:30 PM)
Minimum temperature yesterday: 48 °F (at 4:30 AM)
Average temperature yesterday: 58 °F

Past Weeks' High & Low Weather Summary

 TemperatureHumidityPressure
High90 °F (Dec 16, 2:00 PM)100% (Dec 6, 4:00 AM)30.15 "Hg (Dec 6, 4:00 AM)
Low48 °F (Dec 17, 4:30 AM)6% (Dec 16, 11:30 AM)29.30 "Hg (Dec 16, 2:30 PM)
Average63 °F68%29.84 "Hg
* Reported Dec 5 7:00 PM — Dec 20 7:30 PM, Melbourne, Weather by CustomWeather, © 2014

Note: Actual official high and low records may vary slightly from our data, if they occured in-between our weather recording intervals... More about our weather records

Advertising

Melbourne weather history for previous 24 hours

 ConditionsComfort  
Time TempWeatherWind HumidityBarometerVisibility
7:30 PM
Dec 20
66 °FPassing clouds.15 mph60%30.04 "HgN/A
7:00 PM68 °FPassing clouds.14 mph56%30.01 "HgN/A
6:30 PM68 °FPassing clouds.14 mph56%30.01 "HgN/A
6:00 PM72 °FPassing clouds.15 mph44%30.01 "HgN/A
5:30 PM70 °FPassing clouds.15 mph46%30.01 "HgN/A
5:00 PM72 °FPassing clouds.16 mph41%30.01 "HgN/A
4:30 PM72 °FPassing clouds.16 mph44%30.01 "HgN/A
4:00 PM73 °FPassing clouds.12 mph38%30.01 "HgN/A
3:30 PM73 °FPassing clouds.10 mph41%30.04 "HgN/A
3:00 PM73 °FPassing clouds.8 mph41%30.04 "HgN/A
2:30 PM72 °FPassing clouds.8 mph44%30.04 "HgN/A
2:00 PM72 °FPassing clouds.12 mph41%30.07 "HgN/A
1:00 PM70 °FPassing clouds.12 mph40%30.07 "HgN/A
12:30 PM70 °FPassing clouds.8 mph40%30.07 "HgN/A
12:00 PM70 °FPassing clouds.8 mph43%30.09 "HgN/A
11:30 AM66 °FPassing clouds.6 mph52%30.09 "HgN/A
11:00 AM66 °FScattered clouds.8 mph49%30.09 "HgN/A
10:30 AM66 °FScattered clouds.8 mph46%30.09 "HgN/A
10:00 AM63 °FScattered clouds.6 mph52%30.09 "HgN/A
9:30 AM63 °FScattered clouds.8 mph52%30.09 "HgN/A
9:00 AM61 °FPassing clouds.8 mph59%30.09 "HgN/A
8:00 AM57 °FPassing clouds.8 mph67%30.09 "HgN/A
7:30 AM55 °FPassing clouds.8 mph72%30.07 "HgN/A
7:00 AM52 °FPassing clouds.8 mph82%30.07 "HgN/A
6:30 AM50 °FPassing clouds.5 mph82%30.07 "HgN/A
6:00 AM48 °FPassing clouds.5 mph82%30.07 "HgN/A
5:30 AM48 °FPassing clouds.3 mph82%30.07 "HgN/A
5:00 AM50 °FPassing clouds.5 mph82%30.07 "HgN/A
4:30 AM48 °FPassing clouds.7 mph87%30.07 "HgN/A
4:00 AM48 °FPassing clouds.7 mph87%30.07 "HgN/A
3:30 AM48 °FPassing clouds.7 mph87%30.07 "HgN/A
3:00 AM48 °FPassing clouds.6 mph87%30.07 "HgN/A
2:30 AM52 °FPassing clouds.5 mph82%30.07 "HgN/A
2:00 AM52 °FPassing clouds.6 mph82%30.07 "HgN/A
1:30 AM52 °FPassing clouds.6 mph82%30.09 "HgN/A
1:00 AM54 °FPassing clouds.3 mph82%30.09 "HgN/A
12:30 AM54 °FPassing clouds.5 mph82%30.09 "HgN/A
12:00 AM54 °FPassing clouds.5 mph77%30.09 "HgN/A
11:30 PM
Dec 19
55 °FPassing clouds.6 mph72%30.09 "HgN/A
11:00 PM55 °FPassing clouds.3 mph72%30.12 "HgN/A
10:30 PM55 °FPassing clouds.6 mph67%30.12 "HgN/A
10:00 PM57 °FPassing clouds.8 mph63%30.12 "HgN/A
9:30 PM57 °FPassing clouds.9 mph63%30.09 "HgN/A
9:00 PM57 °FPassing clouds.12 mph59%30.09 "HgN/A
8:30 PM59 °FPassing clouds.13 mph55%30.09 "HgN/A
8:00 PM61 °FPassing clouds.15 mph52%30.09 "HgN/A
Weather by CustomWeather, © 2014

See weather overviewHow to use our weather pages